THOR ABLESTAR DEB, 119

Orbit data source: Space-Track

THOR ABLESTAR DEB, 119 is space debris in LEO originally from a launch on Thu, 29 Jun 1961 UTC launched from the Air Force Eastern Test Range (AFETR). Debris objects in space refer to the collection of defunct objects orbiting the Earth. Examples of debris include non-operational satellites, rocket bodies, and fragments generated from explosions, collisions, or faulty payload assembly.

Loading next visibility...
Identifier
119, 1961-015D
Orbit
LEO
Last TLE update
18 hours ago
Origin
Manufacturer
Unknown
Mission
Spacecraft
Bus & Motor
Unknown
Mass
Unknown
Launch date (UTC)
1961-06-29 (64 years ago)
Launch vehicle
Unknown
Launch site
Air Force Eastern Test Range (AFETR)
Object type
Payload
Rocket body
Debris
Shape & HBR
Unknown
Radar Cross Section
0.250 m², Medium (>0.1 m² and < 1m²)

Expand to show TLE details & history

TLE from 18 hours ago
0 THOR ABLESTAR DEB
1 00119U 61015D   25129.02516202  .00000646  00000-0  28641-3 0  9991
2 00119  66.7281 359.4487 0102243 197.1611 162.6021 14.26560368300654
Epoch: 2025-05-09T00:36Z
Definitive object data (Epoch: 2025-05-09T00:36:13.998Z)
Latitude
-0.00001°
Longitude
123.30314°
Altitude
875.497 km
Speed
7.379 km/s
True Right ascension
23h 57m 47s
True Declination
0° 00' 00"
Sunlit
Object was in daylight at TLE epoch
Visualization TLE readout
Latitude
-66.69729°
Longitude
24.67025°
Altitude
802.759 km
Speed
7.465 km/s
Apparent Right ascension
15h 46m 29s
Apparent Declination
-55° 21' 08"
Sunlit
Object is in full shadow
Visualization observer readout
Local Sidereal Time
02:51:22
Azimuth
206.083° SW
Elevation
-72.059°
Doppler factor
1
Orbital elements
Apogee altitude
875.033 km
Perigee altitude
728.217 km
Semi-major axis
7,179.762 km
Eccentricity
0.0102243
Inclination
66.7281°
RAAN
359.4487°
Arg. of periapsis
197.1611°
True anomaly
162.9482°
Mean anomaly
162.6021°
Eccentric anomaly
162.77557°
Mean motion
3.56762 °/min
BSTAR
0.00028641
Orbital period
100.91 mins
Loading maneuver chart data...
Loading SW <> Apogee altitude chart data...

THOR ABLESTAR DEB Visibility forecast

Observer location: undefined°, undefined°

Span
Click to sort rows by Start time (UTC) header in descending order
Start Az.
Max El. time (UTC)
Max El. Az.
Max El.
End time (UTC)
End Az.
6 mins2025-05-10 00:42:31.594Z8.6° NNE2025-05-10 00:45:31.594Z49.566° ENE19.203°2025-05-10 00:48:31.594Z88.146° E
8 mins2025-05-10 02:25:31.594Z321.324° NNW2025-05-10 02:29:31.594Z239.806° WSW41.451°2025-05-10 02:33:31.594Z167.676° S
6 mins2025-05-10 15:26:31.594Z138.596° SSE2025-05-10 15:29:31.594Z101.11° ESE18.818°2025-05-10 15:32:31.594Z66.55° ENE
9 mins2025-05-10 17:08:31.594Z226.423° WSW2025-05-10 17:12:31.594Z306.054° NW41.308°2025-05-10 17:17:31.594Z21.374° NNE
|